Date,TemperatureHighF,TemperatureAvgF,TemperatureLowF,DewpointHighF,DewpointAvgF,DewpointLowF,HumidityHigh,HumidityAvg,HumidityLow,PressureMaxIn,PressureMinIn,WindSpeedMaxMPH,WindSpeedAvgMPH,GustSpeedMaxMPH,PrecipitationSumIn
2013-9-1,72,67,60,64,60,53,90,78,66,29.96,29.69,11,4,0,0.01
2013-9-2,64,57,50,54,51,47,91,81,68,30.08,29.96,6,2,0,0.00
2013-9-3,76,61,47,62,54,44,93,80,58,30.08,29.97,6,1,0,0.00
2013-9-4,84,71,60,69,63,56,92,76,56,30.10,29.97,6,1,0,0.00
2013-9-5,82,72,63,69,62,55,85,71,57,30.17,30.04,10,3,0,0.00
2013-9-6,89,76,69,70,68,66,92,77,50,30.04,29.80,12,2,0,0.02
2013-9-7,90,79,68,72,68,63,93,72,49,29.94,29.79,12,3,0,0.00
2013-9-8,72,71,68,65,63,60,83,76,71,29.96,29.83,10,4,0,0.00
2013-9-9,82,71,68,72,67,65,92,85,69,29.83,29.64,11,3,0,0.00
2013-9-10,69,67,65,61,61,60,83,79,76,29.95,29.92,1,0,0,0.00
2013-9-11,83,71,62,63,58,50,91,66,35,30.02,29.95,10,3,0,0.00
2013-9-12,66,62,59,50,50,50,72,65,57,30.08,30.02,4,3,0,0.00
2013-9-22,74,69,61,57,55,52,77,63,52,29.91,29.80,16,7,0,0.00
2013-9-23,73,63,55,55,52,49,79,68,51,29.90,29.81,18,6,0,0.00
2013-9-24,74,62,52,57,52,48,86,71,50,29.93,29.87,8,3,0,0.00
2013-9-25,73,62,49,56,52,46,92,72,51,29.94,29.82,13,3,0,0.00
2013-9-26,80,68,57,62,57,51,79,67,52,29.87,29.76,19,7,0,0.00
2013-9-27,84,73,66,65,62,60,83,69,50,29.86,29.72,18,7,0,0.02
2013-9-28,73,61,47,62,54,43,91,78,66,29.93,29.58,14,5,0,0.21
2013-9-29,76,60,47,51,46,41,85,62,34,29.95,29.74,12,3,0,0.01
2013-9-30,79,67,57,54,50,46,71,57,41,29.73,29.53,12,4,0,0.00